Location: Unspecified
(48.8656°N, 0.0000°E)
Time: 19:31:45
(UTC+00:00)

Tiangong 2 - Pass Details

Date: 22 May 2019
Orbit: 376 x 388 km, 42.8° (Epoch: 16 June)

Event Time Altitude Azimuth Distance (km) Brightness Sun altitude
Rises 22:08:01 0° 256° (WSW) 2,235 5.1 -16.6°
Reaches altitude 10° 22:10:16 10° 243° (WSW) 1,383 3.9 -16.7°
Enters shadow 22:11:20 17° 229° (SW) 1,042 3.1 -16.8°
